Meteo Giornale » Osservazioni meteo Svizzera » Locarno

ore: 14:50 - Osservazioni Meteo Locarno
Lat. 46° 10' N Lon. 8° 53' E Alt. 600 metri s.l.m.

molto_nuvoloso Europe/Zurich

10 °C

Molto Nuvoloso

Temp. 24 Ore

0 °C

11 °C

Nord

0 Km/h

Dew point 4 °C

Umidità 66 %

Visibilità  10 Km

Il sole sorge alle ore 07:36

Il sole tramonta alle ore 16:45

Data e Ora Cielo e Fenomeni T °C DP °C Um. % Pres. hPa Vis. km Vento km/h
Oggi h: 14:50 molto_nuvoloso Molto Nuvoloso 10 4 66 1021 10 N 0
Oggi h: 13:50 poco_nuvoloso Poco Nuvoloso 10 4 66 1021 10 N 1.8
Oggi h: 12:50 poco_nuvoloso Poco Nuvoloso 9 4 70 1022 10 N 1.8
Oggi h: 11:50 poco_nuvoloso Poco Nuvoloso 8 4 75 1022 10 N 0
Oggi h: 10:50 poco_nuvoloso Poco Nuvoloso 6 3 81 1023 10 N 0
Oggi h: 09:50 poco_nuvoloso Poco Nuvoloso 4 3 93 1023 10 N 3.7
Oggi h: 08:50 poco_nuvoloso Poco Nuvoloso 2 1 93 1023 10 N 0
Oggi h: 06:50 molto_nuvoloso Molto Nuvoloso 1 1 100 1023 7 N 3.7
Oggi h: 05:50 foschia Foschia 0 -0 100 1022 5 N 1.8
Oggi h: 04:50 sereno Sereno 1 0 93 1022 6 N 0
Oggi h: 03:50 foschia Foschia 2 1 93 1022 5 N 3.7
Oggi h: 02:50 foschia Foschia 1 1 100 1022 5 N 0
Oggi h: 01:50 foschia Foschia 1 1 100 1022 5 N 0
Oggi h: 00:50 foschia Foschia 2 2 100 1022 3 N 0
Ieri h: 23:50 nebbia Banco di Nebbia 3 2 93 1022 3 N 1.8
Ieri h: 22:50 foschia Foschia 3 2 93 1022 2 N 0
Ieri h: 21:50 foschia Foschia 3 2 93 1022 2 N 0
Ieri h: 21:00 foschia Foschia 4 4 100 1021 3 N 0
Ieri h: 19:50 foschia Foschia 5 4 93 1021 4 N 0
Ieri h: 18:50 foschia Foschia 6 5 93 1020 4 N 0
Ieri h: 17:50 foschia Foschia 7 5 87 1020 4 N 3.7
Ieri h: 16:50 foschia Foschia 9 7 87 1020 3 N 0
Ieri h: 15:50 molto_nuvoloso Molto Nuvoloso 10 7 81 1020 7 N 5.5
Ieri h: 14:50 molto_nuvoloso Molto Nuvoloso 11 6 71 1019 8 N 3.7